Location: Killam
(52.7910°N, 111.8608°W)
Time: 18:45:09
(UTC+00:00)

NOAA 18 - Visible Passes

Search period start: 07 March 2026 00:00
Search period end: 17 March 2026 00:00
Orbit: 836 x 858 km, 98.8° (Epoch: 7 March)

Date Brightness Start Highest point End Pass type
(mag) Time Alt. Az. Time Alt. Az. Time Alt. Az.
7 Mar 6.9 03:32:39 16° NE 03:32:39 16° NE 03:35:49 10° NNE visible
7 Mar 6.4 05:14:34 36° N 05:14:34 36° N 05:17:45 10° NNW visible
7 Mar 7.7 06:56:28 15° NW 06:56:28 15° NW 06:57:45 10° NW visible
8 Mar 7.1 03:19:23 14° NE 03:19:48 14° NE 03:22:23 10° NNE visible
8 Mar 6.3 05:01:17 37° N 05:01:17 37° N 05:04:40 10° N visible
8 Mar 7.5 06:43:12 18° NW 06:43:12 18° NW 06:44:59 10° NNW visible
9 Mar 7.2 03:06:06 11° NE 03:07:01 11° NE 03:08:43 10° NNE visible
9 Mar 6.2 04:48:00 36° NNE 04:48:00 36° NNE 04:51:35 10° N visible
9 Mar 7.3 06:29:55 22° NW 06:29:55 22° NW 06:32:10 10° NNW visible
10 Mar 6.3 04:34:44 33° NNE 04:34:44 33° NNE 04:38:27 10° N visible
10 Mar 7.0 06:16:38 27° NW 06:16:38 27° NW 06:19:16 10° NNW visible
11 Mar 6.3 04:21:27 30° NE 04:21:27 30° NE 04:25:19 10° N visible
11 Mar 6.7 06:03:22 32° NW 06:03:22 32° NW 06:06:21 10° NNW visible
12 Mar 6.5 04:08:11 26° NE 04:08:11 26° NE 04:12:08 10° N visible
12 Mar 6.5 05:50:05 37° NNW 05:50:05 37° NNW 05:53:23 10° NNW visible
13 Mar 6.6 03:54:54 22° NE 03:54:54 22° NE 03:58:55 10° N visible
13 Mar 6.2 05:36:48 43° NNW 05:36:48 43° NNW 05:40:23 10° NNW visible
13 Mar 7.7 07:18:43 13° WNW 07:18:43 13° WNW 07:19:38 10° NW visible
14 Mar 6.8 03:41:37 18° ENE 03:42:02 18° NE 03:45:39 10° N visible
14 Mar 6.0 05:23:32 47° N 05:23:32 47° N 05:27:21 10° NNW visible
14 Mar 7.6 07:05:26 16° WNW 07:05:26 16° WNW 07:07:06 10° NW visible
15 Mar 6.9 03:28:21 15° ENE 03:29:13 16° NE 03:32:18 10° NNE visible
15 Mar 5.8 05:10:15 48° NNE 05:10:15 48° NNE 05:14:18 10° NNW visible
15 Mar 7.3 06:52:09 19° WNW 06:52:09 19° WNW 06:54:25 10° NW visible
16 Mar 7.1 03:15:04 12° ENE 03:16:26 13° NE 03:18:50 10° NNE visible
16 Mar 5.8 04:56:58 46° NNE 04:56:58 46° NNE 05:01:14 10° N visible
16 Mar 7.1 06:38:53 24° WNW 06:38:53 24° WNW 06:41:37 10° NNW visible
